Location: Veytaux
(46.4185°N, 6.9320°E)
Time: 08:55:09
(UTC+00:00)

NOSS 2-2 (C) - Pass Details

Date: 27 May 2022
Orbit: 439 x 1763 km, 63.3° (Epoch: 02 June)

Event Time Altitude Azimuth Distance (km) Brightness Sun altitude
Rises 00:16:11 0° 318° (NW) 3,024 7.6 -21.5°
Reaches altitude 10° 00:18:12 10° 315° (NW) 2,249 6.8 -21.4°
Maximum altitude 00:23:20 67° 234° (SW) 998 4.3 -21.2°
Enters shadow 00:26:39 31° 161° (SSE) 1,744 5.4 -21.1°
